Data for 12/27/2012

Time Sea-Level Adjusted Pressure Absolute Pressure Temperature Relative Humidity Dew Point   
(mb) (inHg) (mb) (inHg) (C) (F) (%) (C) (F)
00:05 1010 29.83 839 24.78 -6.6 20.2 84 -8.8 16.2
00:10 1010 29.83 839 24.78 -6.6 20.2 84 -8.8 16.2
00:15 1010 29.83 839 24.78 -6.7 20 85 -8.8 16.2
00:20 1010 29.83 839 24.78 -6.7 19.9 86 -8.7 16.3
00:25 1010 29.83 839 24.78 -6.7 20 86 -8.7 16.4
00:30 1010 29.83 839 24.78 -6.8 19.8 87 -8.6 16.5
00:35 1010 29.83 839 24.78 -6.7 19.9 86 -8.7 16.4
00:40 1010 29.83 839 24.78 -6.8 19.7 87 -8.7 16.4
00:45 1010 29.83 839 24.78 -6.8 19.8 87 -8.6 16.5
00:50 1010 29.83 839 24.78 -6.8 19.7 87 -8.6 16.6
00:55 1010 29.83 839 24.78 -6.9 19.6 88 -8.6 16.5
01:00 1010 29.83 839 24.78 -6.9 19.5 87 -8.7 16.4
01:05 1010 29.83 839 24.78 -6.9 19.6 87 -8.7 16.3
01:10 1010 29.83 839 24.78 -6.8 19.8 87 -8.7 16.4
01:15 1010 29.83 839 24.78 -6.8 19.7 87 -8.6 16.5
01:20 1010 29.83 839 24.78 -6.9 19.7 87 -8.6 16.5
01:25 1010 29.83 839 24.78 -6.8 19.7 88 -8.6 16.6
01:30 1010 29.83 839 24.78 -6.8 19.8 88 -8.5 16.7
01:35 1010 29.83 839 24.78 -6.7 19.9 88 -8.5 16.8
01:40 1010 29.83 839 24.78 -6.7 19.9 87 -8.5 16.7
01:45 1010 29.83 839 24.78 -6.8 19.8 87 -8.6 16.6
01:50 1010 29.83 839 24.78 -6.9 19.6 87 -8.7 16.4
01:55 1010 29.83 839 24.78 -7 19.5 87 -8.8 16.2
02:00 1010 29.83 839 24.78 -7.1 19.2 88 -8.8 16.1
02:05 1010 29.83 839 24.78 -7.2 19.1 88 -8.9 16
02:10 1010 29.83 839 24.78 -7.2 19.1 88 -8.8 16.1
02:15 1010 29.83 839 24.78 -7.2 19.1 88 -8.8 16.1
02:20 1010 29.83 839 24.78 -7.1 19.1 88 -8.8 16.2
02:25 1010 29.83 839 24.78 -7.1 19.2 88 -8.8 16.2
02:30 1010 29.83 839 24.78 -7.1 19.2 88 -8.8 16.2
02:35 1010 29.83 839 24.78 -7.1 19.2 88 -8.7 16.3
02:40 1010 29.83 839 24.78 -7 19.3 88 -8.8 16.2
02:45 1010 29.83 839 24.78 -7 19.4 88 -8.7 16.3
02:50 1010 29.83 839 24.78 -7 19.4 88 -8.7 16.4
02:55 1010 29.83 839 24.78 -7 19.4 88 -8.7 16.4
03:00 1010 29.83 839 24.78 -7 19.4 88 -8.7 16.4
03:05 1010 29.83 839 24.78 -7 19.4 89 -8.6 16.6
03:10 1010 29.83 839 24.78 -7 19.3 89 -8.6 16.6
03:15 1010 29.83 839 24.78 -7 19.3 89 -8.6 16.5
03:20 1010 29.83 839 24.78 -7.1 19.3 89 -8.6 16.6
03:25 1010 29.83 839 24.78 -7.1 19.3 89 -8.6 16.6
03:30 1010 29.83 839 24.78 -7.1 19.3 89 -8.6 16.6
03:35 1010 29.83 839 24.78 -7.1 19.2 89 -8.6 16.5
03:40 1010 29.83 839 24.78 -7.1 19.1 89 -8.6 16.5
03:45 1010 29.83 839 24.78 -7.2 19.1 89 -8.7 16.4
03:50 1010 29.83 839 24.78 -7.2 19.1 89 -8.7 16.4
03:55 1010 29.83 840 24.81 -7.1 19.1 89 -8.6 16.4
04:00 1010 29.83 840 24.81 -7.1 19.2 89 -8.7 16.4
04:05 1010 29.83 840 24.81 -7.1 19.3 89 -8.6 16.6
04:10 1010 29.83 840 24.81 -7 19.3 89 -8.5 16.6
04:15 1010 29.83 840 24.81 -7 19.4 89 -8.5 16.8
04:20 1010 29.83 840 24.81 -6.9 19.5 89 -8.4 16.9
04:25 1010 29.83 840 24.81 -6.9 19.6 89 -8.4 16.9
04:30 1010 29.83 840 24.81 -6.9 19.5 90 -8.3 17
04:35 1010 29.83 840 24.81 -7 19.5 90 -8.4 17
04:40 1010 29.83 840 24.81 -7.1 19.3 90 -8.4 16.9
04:45 1010 29.83 840 24.81 -7.1 19.3 91 -8.4 17
04:50 1010 29.83 840 24.81 -7.1 19.2 91 -8.4 16.9
04:55 1010 29.83 840 24.81 -7.1 19.3 90 -8.4 16.9
05:00 1010 29.83 840 24.81 -7.1 19.2 91 -8.4 16.9
05:05 1010 29.83 840 24.81 -7.1 19.3 91 -8.3 17
05:10 1011 29.85 840 24.81 -7 19.4 91 -8.3 17.1
05:15 1011 29.85 840 24.81 -6.9 19.5 90 -8.3 17.1
05:20 1011 29.85 840 24.81 -6.9 19.6 90 -8.3 17.1
05:25 1011 29.85 840 24.81 -6.9 19.5 90 -8.3 17.1
05:30 1011 29.85 840 24.81 -6.9 19.6 90 -8.3 17.1
05:35 1011 29.85 840 24.81 -6.9 19.6 90 -8.2 17.2
05:40 1011 29.85 840 24.81 -6.9 19.7 90 -8.2 17.2
05:45 1011 29.85 840 24.81 -6.9 19.7 90 -8.2 17.3
05:50 1011 29.85 840 24.81 -6.8 19.7 90 -8.2 17.3
05:55 1011 29.85 840 24.81 -6.8 19.8 90 -8.1 17.3
06:00 1011 29.85 840 24.81 -6.7 19.9 90 -8.1 17.4
06:05 1011 29.85 840 24.81 -6.7 20 90 -8.1 17.5
06:10 1011 29.85 840 24.81 -6.7 20 90 -8.1 17.5
06:15 1011 29.85 840 24.81 -6.7 19.9 90 -8.1 17.4
06:20 1011 29.85 840 24.81 -6.8 19.7 90 -8.2 17.3
06:25 1011 29.85 840 24.81 -6.9 19.5 90 -8.2 17.2
06:30 1011 29.85 840 24.81 -6.9 19.6 91 -8.2 17.2
06:35 1011 29.85 840 24.81 -6.9 19.6 91 -8.2 17.2
06:40 1011 29.85 840 24.81 -6.9 19.6 90 -8.2 17.2
06:45 1011 29.85 840 24.81 -6.9 19.6 90 -8.2 17.2
06:50 1011 29.85 840 24.81 -6.9 19.5 91 -8.2 17.2
06:55 1011 29.85 840 24.81 -7 19.3 91 -8.2 17.2
07:00 1011 29.85 840 24.81 -7 19.4 91 -8.2 17.3
07:05 1011 29.85 840 24.81 -6.9 19.6 91 -8.2 17.3
07:10 1011 29.85 840 24.81 -6.9 19.5 91 -8.2 17.2
07:15 1011 29.85 840 24.81 -7 19.4 91 -8.2 17.3
07:20 1011 29.85 840 24.81 -7 19.5 91 -8.2 17.2
07:25 1011 29.85 840 24.81 -6.9 19.5 91 -8.1 17.3
07:30 1011 29.85 840 24.81 -6.9 19.6 91 -8.1 17.3
07:35 1011 29.85 840 24.81 -6.8 19.8 90 -8.1 17.4
07:40 1011 29.85 841 24.83 -6.7 19.9 90 -8.1 17.4
07:45 1011 29.85 841 24.83 -6.7 19.9 90 -8 17.5
07:50 1011 29.85 841 24.83 -6.8 19.8 91 -8.1 17.5
07:55 1011 29.85 841 24.83 -6.8 19.8 90 -8.1 17.5
08:00 1011 29.85 841 24.83 -6.7 19.9 90 -8.1 17.5
08:05 1012 29.88 841 24.83 -6.7 19.9 90 -8.1 17.5
08:10 1012 29.88 841 24.83 -6.7 20 90 -8 17.6
08:15 1012 29.88 841 24.83 -6.6 20.1 90 -8 17.6
08:20 1012 29.88 841 24.83 -6.5 20.4 89 -7.9 17.7
08:25 1012 29.88 841 24.83 -6.4 20.5 89 -7.9 17.7
08:30 1012 29.88 841 24.83 -6.4 20.6 89 -7.9 17.8
08:35 1012 29.88 841 24.83 -6.4 20.5 89 -7.9 17.8
08:40 1012 29.88 841 24.83 -6.4 20.5 89 -7.9 17.8
08:45 1012 29.88 841 24.83 -6.4 20.5 89 -7.9 17.8
08:50 1012 29.88 841 24.83 -6.3 20.6 89 -7.9 17.8
08:55 1012 29.88 841 24.83 -6.2 20.8 89 -7.8 18
09:00 1012 29.88 841 24.83 -6.2 20.9 88 -7.8 18
09:05 1012 29.88 841 24.83 -6.1 21 88 -7.7 18.1
09:10 1012 29.88 841 24.83 -6 21.1 88 -7.7 18.1
09:15 1012 29.88 841 24.83 -6.1 21.1 88 -7.8 18
09:20 1012 29.88 841 24.83 -6.1 21.1 88 -7.7 18.1
09:25 1012 29.88 841 24.83 -6.1 21.1 88 -7.7 18.1
09:30 1012 29.88 841 24.83 -6.1 20.9 88 -7.8 18
09:35 1012 29.88 841 24.83 -6.3 20.6 89 -7.8 17.9
09:40 1012 29.88 841 24.83 -6.4 20.5 90 -7.8 17.9
09:45 1012 29.88 841 24.83 -6.4 20.6 89 -7.8 17.9
09:50 1012 29.88 841 24.83 -6.2 20.8 89 -7.8 18
09:55 1012 29.88 841 24.83 -6.2 20.8 88 -7.8 17.9
10:00 1012 29.88 841 24.83 -6.3 20.7 89 -7.8 17.9
10:05 1012 29.88 842 24.86 -6.3 20.6 89 -7.9 17.8
10:10 1012 29.88 842 24.86 -6.2 20.8 88 -7.8 17.9
10:15 1012 29.88 842 24.86 -6.1 21 88 -7.9 17.9
10:20 1012 29.88 842 24.86 -6.1 21 88 -7.8 18
10:25 1013 29.91 842 24.86 -6 21.2 87 -7.8 18
10:30 1013 29.91 842 24.86 -5.9 21.5 87 -7.7 18.1
10:35 1013 29.91 842 24.86 -5.9 21.3 88 -7.7 18.2
10:40 1013 29.91 842 24.86 -5.9 21.5 87 -7.7 18.2
10:45 1013 29.91 842 24.86 -5.7 21.8 86 -7.6 18.3
10:50 1013 29.91 842 24.86 -5.5 22.2 85 -7.6 18.4
10:55 1013 29.91 842 24.86 -5.3 22.5 84 -7.5 18.5
11:00 1013 29.91 842 24.86 -5.2 22.6 85 -7.4 18.6
11:05 1013 29.91 842 24.86 -5.1 22.9 84 -7.4 18.6
11:10 1013 29.91 842 24.86 -4.8 23.4 83 -7.3 18.8
11:15 1013 29.91 842 24.86 -4.4 24 80 -7.3 18.8
11:20 1013 29.91 842 24.86 -4.3 24.2 80 -7.2 19
11:25 1013 29.91 842 24.86 -4.2 24.4 79 -7.3 18.9
11:30 1013 29.91 842 24.86 -4.1 24.6 79 -7.2 19
11:35 1013 29.91 842 24.86 -3.9 24.9 78 -7.2 19
11:40 1013 29.91 842 24.86 -3.9 25 78 -7.2 19
11:45 1013 29.91 842 24.86 -4 24.8 79 -7.2 19
11:50 1013 29.91 842 24.86 -4.1 24.7 79 -7.2 19
11:55 1013 29.91 842 24.86 -4 24.8 79 -7.2 19.1
12:00 1013 29.91 842 24.86 -4 24.8 78 -7.2 19
12:05 1013 29.91 842 24.86 -4.2 24.5 78 -7.4 18.7
12:10 1013 29.91 842 24.86 -4.1 24.5 79 -7.3 18.9
12:15 1013 29.91 842 24.86 -4.2 24.5 78 -7.4 18.7
12:20 1013 29.91 842 24.86 -4 24.7 78 -7.3 18.9
12:25 1013 29.91 842 24.86 -3.7 25.4 77 -7.1 19.3
12:30 1013 29.91 842 24.86 -3.6 25.5 77 -7.2 19.1
12:35 1013 29.91 842 24.86 -3.7 25.4 76 -7.3 18.9
12:40 1013 29.91 842 24.86 -3.4 25.8 75 -7.2 19.1
12:45 1013 29.91 842 24.86 -3 26.6 75 -6.9 19.5
12:50 1013 29.91 842 24.86 -2.7 27.1 72 -7 19.4
12:55 1013 29.91 842 24.86 -2.8 26.9 73 -7 19.4
13:00 1013 29.91 842 24.86 -3 26.6 75 -6.9 19.7
13:05 1013 29.91 842 24.86 -3.4 25.8 78 -6.8 19.8
13:10 1013 29.91 842 24.86 -3.1 26.4 76 -6.8 19.8
13:15 1013 29.91 842 24.86 -2.9 26.7 76 -6.6 20.1
13:20 1013 29.91 842 24.86 -3.1 26.5 76 -6.8 19.8
13:25 1013 29.91 842 24.86 -3.2 26.2 76 -6.8 19.7
13:30 1013 29.91 842 24.86 -3.2 26.3 75 -7 19.4
13:35 1013 29.91 842 24.86 -3.1 26.5 75 -6.9 19.5
13:40 1013 29.91 842 24.86 -3 26.7 73 -7.1 19.2
13:45 1013 29.91 842 24.86 -2.5 27.6 71 -7.1 19.3
13:50 1013 29.91 842 24.86 -2.4 27.7 70 -7.1 19.3
13:55 1013 29.91 842 24.86 -2 28.3 68 -7.2 19
14:00 1013 29.91 842 24.86 -1.8 28.7 67 -7.1 19.2
14:05 1013 29.91 842 24.86 -2 28.4 68 -7.2 19.1
14:10 1013 29.91 842 24.86 -2.2 28 68 -7.4 18.6
14:15 1013 29.91 842 24.86 -2.9 26.9 71 -7.5 18.5
14:20 1013 29.91 842 24.86 -3.2 26.3 73 -7.4 18.6
14:25 1013 29.91 842 24.86 -2.9 26.8 70 -7.6 18.2
14:30 1013 29.91 842 24.86 -2.9 26.8 70 -7.6 18.3
14:35 1013 29.91 842 24.86 -2.8 27 72 -7.2 19
14:40 1013 29.91 842 24.86 -3 26.6 71 -7.5 18.4
14:45 1013 29.91 842 24.86 -3.5 25.7 71 -8 17.6
14:50 1013 29.91 842 24.86 -3.3 26 71 -7.9 17.7
14:55 1013 29.91 842 24.86 -3.1 26.3 70 -7.9 17.8
15:00 1012 29.88 842 24.86 -3.3 26.1 69 -8.2 17.3
15:05 1013 29.91 842 24.86 -3.1 26.5 69 -8.1 17.5
15:10 1013 29.91 842 24.86 -2.8 26.9 65 -8.5 16.7
15:15 1013 29.91 842 24.86 -2.6 27.4 65 -8.3 17
15:20 1013 29.91 842 24.86 -2.3 27.9 64 -8.3 17.1
15:25 1013 29.91 842 24.86 -2.1 28.2 64 -8.1 17.4
15:30 1013 29.91 842 24.86 -1.8 28.7 62 -8.1 17.4
15:35 1013 29.91 842 24.86 -1.7 28.9 62 -8 17.5
15:40 1013 29.91 842 24.86 -1.7 29 61 -8.2 17.2
15:45 1013 29.91 842 24.86 -1.9 28.6 64 -7.9 17.8
15:50 1013 29.91 842 24.86 -2 28.3 65 -7.9 17.9
15:55 1013 29.91 842 24.86 -2 28.4 64 -8 17.6
16:00 1013 29.91 842 24.86 -1.9 28.6 63 -7.9 17.7
16:05 1013 29.91 842 24.86 -1.8 28.7 63 -7.9 17.8
16:10 1013 29.91 842 24.86 -1.9 28.6 63 -8 17.6
16:15 1013 29.91 842 24.86 -1.9 28.5 63 -8 17.6
16:20 1013 29.91 842 24.86 -1.9 28.5 63 -8.1 17.4
16:25 1013 29.91 842 24.86 -1.9 28.6 64 -7.9 17.9
16:30 1013 29.91 842 24.86 -1.9 28.5 64 -7.9 17.7
16:35 1013 29.91 842 24.86 -2 28.4 64 -7.8 17.9
16:40 1013 29.91 842 24.86 -2.1 28.3 65 -7.8 17.9
16:45 1013 29.91 842 24.86 -2.1 28.2 64 -8 17.7
16:50 1013 29.91 842 24.86 -2.1 28.2 64 -8.1 17.4
16:55 1013 29.91 842 24.86 -2.1 28.3 63 -8.1 17.4
17:00 1013 29.91 842 24.86 -2.1 28.1 63 -8.2 17.2
17:05 1013 29.91 843 24.89 -2.2 28 64 -8 17.5
17:10 1013 29.91 843 24.89 -2.2 28 65 -7.9 17.8
17:15 1013 29.91 843 24.89 -2.3 27.9 66 -7.8 17.9
17:20 1013 29.91 843 24.89 -2.4 27.8 65 -8 17.5
17:25 1013 29.91 843 24.89 -2.3 27.8 65 -8 17.6
17:30 1013 29.91 843 24.89 -2.4 27.7 65 -8.1 17.5
17:35 1013 29.91 843 24.89 -2.5 27.6 66 -8 17.5
17:40 1014 29.94 843 24.89 -2.5 27.6 67 -7.9 17.9
17:45 1014 29.94 843 24.89 -2.5 27.5 66 -8 17.6
17:50 1014 29.94 843 24.89 -2.4 27.6 66 -8 17.6
17:55 1014 29.94 843 24.89 -2.4 27.6 65 -8.1 17.4
18:00 1014 29.94 843 24.89 -2.5 27.5 66 -8 17.6
18:05 1014 29.94 843 24.89 -2.6 27.3 67 -8 17.7
18:10 1014 29.94 843 24.89 -2.6 27.2 67 -7.9 17.8
18:15 1014 29.94 843 24.89 -2.7 27.2 68 -7.8 17.9
18:20 1014 29.94 843 24.89 -2.8 27 67 -8 17.6
18:25 1014 29.94 843 24.89 -2.8 27 67 -8.1 17.4
18:30 1014 29.94 843 24.89 -2.8 27.1 67 -8.1 17.5
18:35 1014 29.94 843 24.89 -2.9 26.9 67 -8.1 17.4
18:40 1014 29.94 843 24.89 -3 26.6 68 -8.2 17.3
18:45 1014 29.94 843 24.89 -3.1 26.4 68 -8.2 17.2
18:50 1014 29.94 843 24.89 -3.2 26.2 67 -8.5 16.7
18:55 1014 29.94 843 24.89 -3.2 26.2 67 -8.5 16.8
19:00 1014 29.94 843 24.89 -3.2 26.2 68 -8.3 17
19:05 1014 29.94 843 24.89 -3.2 26.2 68 -8.3 17.1
19:10 1014 29.94 843 24.89 -3.2 26.3 68 -8.2 17.2
19:15 1014 29.94 843 24.89 -3.2 26.2 70 -8 17.7
19:20 1014 29.94 843 24.89 -3.3 26.1 70 -8 17.7
19:25 1014 29.94 843 24.89 -3.3 26.1 69 -8.2 17.2
19:30 1014 29.94 843 24.89 -3.2 26.2 69 -8.1 17.4
19:35 1014 29.94 843 24.89 -3.2 26.3 66 -8.7 16.4
19:40 1014 29.94 843 24.89 -3.1 26.4 65 -8.8 16.2
19:45 1014 29.94 843 24.89 -3.1 26.4 66 -8.7 16.4
19:50 1014 29.94 843 24.89 -3.1 26.4 66 -8.6 16.5
19:55 1014 29.94 843 24.89 -3.1 26.4 67 -8.5 16.7
20:00 1014 29.94 843 24.89 -3.2 26.2 68 -8.2 17.2
20:05 1014 29.94 843 24.89 -3.2 26.2 69 -8.1 17.3
20:10 1014 29.94 843 24.89 -3.3 26.1 68 -8.3 17.1
20:15 1014 29.94 843 24.89 -3.3 26.1 69 -8.2 17.2
20:20 1014 29.94 843 24.89 -3.3 26 70 -8.1 17.4
20:25 1014 29.94 843 24.89 -3.3 26 69 -8.3 17.1
20:30 1014 29.94 843 24.89 -3.3 26 69 -8.1 17.4
20:35 1014 29.94 843 24.89 -3.4 26 70 -8 17.6
20:40 1014 29.94 843 24.89 -3.4 25.9 69 -8.2 17.2
20:45 1014 29.94 843 24.89 -3.5 25.8 70 -8.1 17.4
20:50 1014 29.94 843 24.89 -3.5 25.6 70 -8.3 17.1
20:55 1014 29.94 843 24.89 -3.7 25.4 69 -8.6 16.5
21:00 1014 29.94 843 24.89 -3.7 25.4 69 -8.6 16.4
21:05 1014 29.94 843 24.89 -3.6 25.5 67 -8.8 16.2
21:10 1014 29.94 844 24.92 -3.5 25.7 67 -8.8 16.1
21:15 1014 29.94 843 24.89 -3.4 25.9 67 -8.7 16.4
21:20 1014 29.94 843 24.89 -3.4 25.8 67 -8.6 16.4
21:25 1014 29.94 843 24.89 -3.5 25.8 68 -8.6 16.5
21:30 1014 29.94 843 24.89 -3.4 25.9 67 -8.6 16.5
21:35 1014 29.94 843 24.89 -3.4 25.8 67 -8.6 16.4
21:40 1014 29.94 843 24.89 -3.6 25.6 67 -8.9 16
21:45 1014 29.94 843 24.89 -3.7 25.3 68 -8.9 16
21:50 1014 29.94 843 24.89 -3.7 25.3 65 -9.4 15
21:55 1014 29.94 843 24.89 -3.5 25.6 64 -9.4 15.1
22:00 1014 29.94 843 24.89 -3.4 25.8 63 -9.5 14.9
22:05 1014 29.94 843 24.89 -3.4 25.9 64 -9.3 15.3
22:10 1014 29.94 843 24.89 -3.4 25.9 64 -9.3 15.3
22:15 1014 29.94 843 24.89 -3.4 25.9 65 -9.1 15.6
22:20 1014 29.94 843 24.89 -3.5 25.7 64 -9.4 15.1
22:25 1014 29.94 843 24.89 -3.6 25.6 63 -9.6 14.7
22:30 1014 29.94 843 24.89 -3.6 25.5 63 -9.6 14.8
22:35 1014 29.94 843 24.89 -3.7 25.4 64 -9.6 14.7
22:40 1014 29.94 843 24.89 -3.7 25.3 63 -9.8 14.3
22:45 1014 29.94 843 24.89 -3.6 25.4 64 -9.6 14.8
22:50 1014 29.94 843 24.89 -3.6 25.5 62 -9.8 14.3
22:55 1014 29.94 843 24.89 -3.5 25.7 62 -9.8 14.4
23:00 1014 29.94 843 24.89 -3.6 25.5 61 -10 14
23:05 1014 29.94 843 24.89 -3.6 25.6 62 -9.8 14.3
23:10 1014 29.94 843 24.89 -3.6 25.6 63 -9.7 14.5
23:15 1014 29.94 843 24.89 -3.6 25.6 61 -10 14
23:20 1014 29.94 843 24.89 -3.6 25.6 62 -9.9 14.1
23:25 1014 29.94 843 24.89 -3.6 25.5 62 -9.9 14.2
23:30 1014 29.94 843 24.89 -3.8 25.2 64 -9.7 14.6
23:35 1014 29.94 843 24.89 -3.8 25.1 63 -9.8 14.3
23:40 1014 29.94 843 24.89 -3.9 25 65 -9.6 14.6
23:45 1014 29.94 844 24.92 -3.9 25 64 -9.8 14.3
23:50 1014 29.94 844 24.92 -3.8 25.1 63 -9.9 14.2
23:55 1014 29.94 844 24.92 -3.8 25.1 62 -10 14
24:00 1014 29.94 844 24.92 -3.9 25 63 -10 14